Guangchuan 01

operational
NORAD ID: 62111 Int'l Des: 2024-221 Owner: HONGQ Country: CN
LEOCIRCULAR

Über Guangchuan 01

Beschreibung wird geladen...

Live-Position

3D-Globus wird geladen...

Nächste Überflüge

Höhenverlauf

Altitude vs Time

uPlot chart will show altitude changes over time

Zweizeiliger Elementsatz

1 62111U 24221A 25340.81205943 .00007489 00000-0 40263-3 0 9994
2 62111 49.9460 19.7049 0007407 248.9528 111.0631 15.15740837 57018
Epoch: 6. Dez. 2025 • Age: 15 hours

Aktueller Status

Höhe 524.2 km
Geschwindigkeit 7.60 km/s
Subsatellitenpunkt -33.23°S, 7.44°W
Startdatum 27. Nov. 2024
Alter 1 years
Typ other

Technische Details

Klassifizierung Payload
Masse 500.00 kg
Trockenmasse 500.00 kg
Gesamtmasse 500.00 kg
Länge 0.50 m
Durchmesser 1.80 m
Spannweite 6.00 m
Form Box + 2 pan
Hersteller CAST
Bus-Typ HQ
Phasenstatus In Orbit
Besitzer/Staat HONGQ/CN

Große Konstellationen

Loading constellations...